Location: Newark
(39.6867°N, 100.6772°W)
Time: 10:51:03
(UTC+00:00)

Tiros 1 - All Passes

Search period start: 16 October 2019 00:00
Search period end: 26 October 2019 00:00
Orbit: 630 x 664 km, 48.4° (Epoch: 15 October)

Date Brightness Start Highest point End Pass type
(mag) Time Alt. Az. Time Alt. Az. Time Alt. Az.
16 Oct - 08:09:20 10° S 08:12:40 19° SE 08:16:01 10° E night (unlit)
16 Oct - 09:49:35 10° WSW 09:54:24 88° NNW 09:59:14 10° ENE visible
16 Oct - 11:32:40 10° WNW 11:37:03 34° NNW 11:41:26 10° NE visible
16 Oct - 13:15:56 10° NW 13:20:12 30° N 13:24:27 10° ENE daylight
16 Oct - 14:58:15 10° NW 15:03:03 65° NNE 15:07:48 10° ESE daylight
16 Oct - 16:40:54 10° WNW 16:45:01 29° SW 16:49:06 10° SSE daylight
17 Oct - 08:33:55 10° SSW 08:38:24 41° SE 08:42:55 10° ENE visible
17 Oct - 10:15:55 10° W 10:20:35 50° NNW 10:25:18 10° NE visible
17 Oct - 11:59:22 10° WNW 12:03:34 29° N 12:07:46 10° ENE visible
17 Oct - 13:42:09 10° NW 13:46:41 39° NNE 13:51:11 10° E daylight
17 Oct - 15:24:22 10° WNW 15:29:09 67° SW 15:33:53 10° SE daylight
17 Oct - 17:08:41 10° WSW 17:10:39 12° SW 17:12:37 10° SSW daylight
18 Oct - 07:19:35 10° S 07:22:41 17° SE 07:25:47 10° E night (unlit)
18 Oct - 08:59:34 10° SW 09:04:21 86° SSE 09:09:12 10° ENE visible
18 Oct - 10:42:34 10° W 10:46:58 34° NNW 10:51:23 10° NE visible
18 Oct - 12:25:53 10° NW 12:30:07 30° N 12:34:22 10° ENE visible
18 Oct - 14:08:13 10° NW 14:13:00 61° NNE 14:17:45 10° ESE daylight
18 Oct - 15:50:47 10° WNW 15:55:01 31° SW 15:59:13 10° SSE daylight
19 Oct - 07:44:00 10° SSW 07:48:24 38° SE 07:52:50 10° ENE night (unlit)
19 Oct - 09:25:51 10° WSW 09:30:32 53° NNW 09:35:16 10° NE visible
19 Oct - 11:09:17 10° WNW 11:13:29 29° N 11:17:42 10° ENE visible
19 Oct - 12:52:07 10° NW 12:56:37 37° NNE 13:01:05 10° E daylight
19 Oct - 14:34:19 10° WNW 14:39:07 73° SW 14:43:53 10° SE daylight
19 Oct - 16:18:16 10° W 16:20:41 14° SW 16:23:04 10° SSW daylight
20 Oct - 06:29:53 10° SSE 06:32:42 16° SE 06:35:32 10° E night (unlit)
20 Oct - 08:09:33 10° SW 08:14:19 81° SSE 08:19:09 10° ENE night (unlit)
20 Oct - 09:52:29 10° W 09:56:54 36° NNW 10:01:21 10° NE visible
20 Oct - 11:35:49 10° NW 11:40:02 29° N 11:44:16 10° ENE visible
20 Oct - 13:18:11 10° NW 13:22:57 58° NNE 13:27:41 10° ESE daylight
20 Oct - 15:00:41 10° WNW 15:05:01 34° SW 15:09:19 10° SSE daylight
21 Oct - 06:54:05 10° SSW 06:58:23 35° SE 07:02:45 10° ENE night (unlit)
21 Oct - 08:35:47 10° WSW 08:40:29 56° NNW 08:45:13 10° NE visible
21 Oct - 10:19:11 10° WNW 10:23:24 29° N 10:27:37 10° NE visible
21 Oct - 12:02:04 10° NW 12:06:32 36° NNE 12:10:59 10° E visible
21 Oct - 13:44:16 10° WNW 13:49:06 78° SSW 13:53:53 10° SE daylight
21 Oct - 15:27:58 10° W 15:30:42 15° SW 15:33:26 10° SSW daylight
22 Oct - 05:40:14 10° SSE 05:42:43 14° SE 05:45:14 10° E night (unlit)
22 Oct - 07:19:33 10° SW 07:24:17 75° SE 07:29:06 10° ENE night (unlit)
22 Oct - 09:02:23 10° W 09:06:49 37° NNW 09:11:18 10° NE visible
22 Oct - 10:45:45 10° NW 10:49:57 29° N 10:54:10 10° ENE visible
22 Oct - 12:28:09 10° NW 12:32:53 55° NNE 12:37:37 10° ESE visible
22 Oct - 14:10:35 10° WNW 14:15:01 37° SW 14:19:24 10° SSE daylight
23 Oct - 06:04:12 10° SSW 06:08:23 32° SE 06:12:38 10° ENE night (unlit)
23 Oct - 07:45:44 10° WSW 07:50:25 59° NNW 07:55:11 10° NE night (unlit)
23 Oct - 09:29:07 10° WNW 09:33:19 29° N 09:37:33 10° NE visible
23 Oct - 11:12:02 10° NW 11:16:28 35° NNE 11:20:53 10° E visible
23 Oct - 12:54:13 10° WNW 12:59:04 84° SSW 13:03:52 10° SE daylight
23 Oct - 14:37:42 10° W 14:40:43 17° SW 14:43:44 10° S daylight
24 Oct - 04:50:39 10° SSE 04:52:45 13° SE 04:54:52 10° ESE night (unlit)
24 Oct - 06:29:34 10° SW 06:34:16 70° SE 06:39:03 10° ENE night (unlit)
24 Oct - 08:12:18 10° W 08:16:46 38° NNW 08:21:15 10° NE night (unlit)
24 Oct - 09:55:41 10° WNW 09:59:52 29° N 10:04:04 10° ENE visible
24 Oct - 11:38:07 10° NW 11:42:50 52° NNE 11:47:32 10° E visible
24 Oct - 13:20:30 10° WNW 13:25:01 40° SW 13:29:29 10° SSE daylight
25 Oct - 05:14:18 10° SSW 05:18:24 30° SE 05:22:32 10° ENE night (unlit)
25 Oct - 06:55:40 10° WSW 07:00:23 63° NNW 07:05:09 10° NE night (unlit)
25 Oct - 08:39:02 10° WNW 08:43:14 30° N 08:47:29 10° NE visible
25 Oct - 10:21:59 10° NW 10:26:23 34° NNE 10:30:47 10° E visible
25 Oct - 12:04:11 10° WNW 12:09:02 89° SSW 12:13:50 10° ESE visible
25 Oct - 13:47:28 10° W 13:50:44 18° SW 13:53:59 10° S daylight
